This demonstration page uses our WeatherBlox Daily Observations layout. Learn more.

Left ArrowRight Arrow

Hourly Observations for April 8, 2018

Temp ( °F °C ) Dew Point ( °F °C ) Humidity (%) Winds ( mph kmh ) Pressure ( in mb ) Visibility ( mi km ) Precip ( " mm )
12:53 am 00:53 Cloudy 31 -0.6 15 -9.4 52 52 S 8 13 30.02 1017 10 16 0.00 0.00
1:53 am 01:53 Mostly Cloudy 32 0 15 -9.4 50 50 SSE 12 19 29.96 1015 10 16 0.00 0.00
2:53 am 02:53 Cloudy 33 0.6 15 -9.4 47 47 SSE 13 20 29.92 1013 10 16 0.00 0.00
3:53 am 03:53 Cloudy 32 0 16 -8.9 52 52 SSE 15 24 29.89 1012 10 16 0.00 0.00
4:53 am 04:53 Cloudy 33 0.6 15 -9.4 47 47 SSE 15 24 29.87 1012 10 16 0.00 0.00
5:53 am 05:53 Clear 32 0 15 -9.4 50 50 SSE 17 28 29.80 1009 10 16 0.00 0.00
6:53 am 06:53 Cloudy 33 0.6 15 -9.4 47 47 S 21 33 29.78 1008 10 16 0.00 0.00
7:53 am 07:53 Partly Cloudy 33 0.6 18 -7.8 54 54 S 21 33 29.75 1007 10 16 0.00 0.00
8:53 am 08:53 Mostly Sunny 35 1.7 21 -6.1 57 57 S 23 37 29.75 1008 10 16 0.00 0.00
9:53 am 09:53 Sunny 37 2.8 22 -5.6 54 54 S 21 33 29.74 1007 10 16 0.00 0.00
10:53 am 10:53 Mostly Cloudy 37 2.8 25 -3.9 62 62 S 17 28 29.72 1006 10 16 0.00 0.03
11:53 am 11:53 Sunny 39 3.9 25 -3.9 57 57 S 14 22 29.70 1006 10 16 0.00 0.00
12:53 pm 12:53 Mostly Cloudy 40 4.4 26 -3.3 58 58 S 16 26 29.72 1006 10 16 0.00 0.00
1:53 pm 13:53 Sunny 43 6.1 28 -2.2 56 56 S 16 26 29.70 1006 10 16 0.00 0.00
2:53 pm 14:53 Sunny 46 7.8 29 -1.7 51 51 S 9 15 29.68 1005 10 16 0.00 0.00
3:53 pm 15:53 Sunny 53 11.7 31 -0.6 43 43 W 8 13 29.67 1005 10 16 0.00 0.00
4:53 pm 16:53 Partly Cloudy 60 15.6 33 0.6 36 36 NW 10 17 29.65 1004 10 16 0.00 0.00
5:53 pm 17:53 Sunny 61 16.1 33 0.6 35 35 NNW 20 31 29.69 1005 10 16 0.00 0.00
6:53 pm 18:53 Sunny 56 13.3 29 -1.7 36 36 NNW 24 39 29.73 1007 10 16 0.00 0.00
7:53 pm 19:53 Sunny 50 10 28 -2.2 43 43 NNW 21 33 29.78 1009 10 16 0.00 0.00
8:53 pm 20:53 Clear 42 5.6 28 -2.2 58 58 N 16 26 29.84 1010 10 16 0.00 0.00
9:53 pm 21:53 Clear 37 2.8 27 -2.8 67 67 N 18 30 29.88 1012 10 16 0.00 0.00
10:53 pm 22:53 Clear 34 1.1 26 -3.3 73 73 N 12 19 29.93 1013 10 16 0.00 0.00
11:53 pm 23:53 Clear 32 0 26 -3.3 79 79 NNW 12 19 29.95 1014 10 16 0.00 0.00

Powered by AerisWeather